Regional Weather Roundup
Issued by NWS Sioux Falls, SD

Home | Current Version | Previous Version | Text Only | Print | Product List | Glossary Off
Versions: 1 2 3 4 5 6 7 8 9 10 11 12 13 14 15 16 17 18 19 20 21 22 23 24 25 26 27 28 29 30 31 32 33 34 35 36 37 38 39 40 41 42 43 44 45 46 47 48 49 50

000
ASUS43 KFSD 031302
RWRFSD

WEATHER ROUNDUP FOR SE SOUTH DAKOTA/SW MINNESOTA/NW IOWA
NATIONAL WEATHER SERVICE SIOUX FALLS SD
700 AM CST TUE MAR 03 2015

NOTE: "FAIR" INDICATES FEW OR NO CLOUDS BELOW 12,000 FEET WITH NO
SIGNIFICANT WEATHER AND OR OBSTRUCTIONS TO VISIBILITY.


SDZ038>040-050-052>070-031400-
SOUTHEAST SOUTH DAKOTA

CITY           SKY/WX    TMP DP  RH WIND       PRES   REMARKS
CHAMBERLAIN    NOT AVBL
HURON          LGT SNOW  20  17  88 N35G45    29.76R VSB 1   WCI   0
MADISON        LGT SNOW  23  23 100 CALM      29.66S VSB 3/4
MITCHELL         N/A     26  24  92 W9        29.73R FOG     WCI  17
SIOUX FALLS    SNOW      25  23  92 CALM      29.66F VSB 1/2
WINNER         LGT SNOW  19  14  81 N21G32    29.84R VSB 3/4 WCI   3
YANKTON        MOCLDY    27  19  74 W6        29.71R WCI  20
$$

MNZ071-072-080-081-089-090-097-098-031400-
SOUTHWEST MINNESOTA

CITY           SKY/WX    TMP DP  RH WIND       PRES   REMARKS
FAIRMONT       CLOUDY    25  19  80 S7        29.67S WCI  17
JACKSON        FLURRIES  25  21  86 S5        29.67R WCI  19
LUVERNE        LGT SNOW  27  23  86 CALM      29.68S
MARSHALL       CLOUDY    23  19  86 SW5       29.71R VSB 1   WCI  17
MONTEVIDEO     SNOW      23  21  93 SW5       29.72R VSB 1/4 WCI  17
PIPESTONE      SNOW      21  21 100 CALM      29.66F VSB 1/2
REDWOOD FALLS  SNOW      22  20  92 S6        29.70R VSB 1/2 WCI  14
TRACY          LGT SNOW  24  22  92 SW9       29.69R VSB 3/4 WCI  15
WINDOM         LGT SNOW  23  21  93 CALM      29.68R
WORTHINGTON    CLOUDY    23  19  86 SW5       29.68S WCI  17
$$

IAZ001>003-012>014-020>022-031-032-NEZ013-014-SDZ071-031400-
NORTHWEST IOWA

CITY           SKY/WX    TMP DP  RH WIND       PRES   REMARKS
DENISON        CLOUDY    30  30 100 SW6       29.64S FOG     WCI  24
ESTHERVILLE    CLOUDY    23  20  88 S7        29.66F WCI  15
SIOUX CITY     CLOUDY    29  27  92 W5        29.69R FOG     WCI  24
SPENCER        CLOUDY    26  21  81 S6        29.68R WCI  19
$$

ABBREVIATIONS USED IN REMARKS
   TC - TEMPERATURE IN CELSIUS
  WCI - WIND CHILL INDEX
   HX - HEAT INDEX
  VSB - VISIBILITY




USA.gov is the U.S. government's official web portal to all federal, state and local government web resources and services.